www.pogodaiklimat.ru

Погода и климат >> Архив погоды >> Россия >> Иркутская область >> Худжир


ПОГОДА в Худжире

  • Прогноз погоды в Худжире
  • Монитор погоды в Худжире

АРХИВ ПОГОДЫ в Худжире

Время (UTC), дата Ветер
(напр.,м/с)
 
Видим.   Явления Облачность Т
(С)
Тd
(С)
f
(%)
Тe
(С)
Тes
(С)
Комфортность P
(гПа)
Po
(гПа)
Тmin
(С)
Tmax
(С)
R
(мм)
R24
(мм)
S
(см)
06 13.08 СВ 2 50 км 10/4 600 м
[Cb cap Ac trans Ci fib]
+18.9 +10.1 57 +20 +24 1006.9 951.6
09 13.08 З 3 50 км 10/4 600 м
[Cb cap Ac trans Ci fib]
+21.2 +7.4 41 +22 +23 комфорт 1006.4 951.5
12 13.08 ЮЗ 5 20 км слаб. ливневой дождь 10/8 600 м
[Cb cap Ac trans Ci fib]
+14.8 +10.2 74 +13 +13 1008.7 952.5 +21.2 1
15 13.08 Ю 3 н/о {ливн. осадки} 8/3 600 м
[Cb cap Ac trans Ci fib]
+12.3 +9.0 80 +11 +11 1009.3 952.6
18 13.08 Ю 3 н/о {ливн. осадки} 8/0
[Ac trans Ci fib]
+11.0 +7.2 77 +9 +9 1009.3 952.3
21 13.08 ЮВ 3 50 км 5/0
[Ci fib]
+9.9 +6.3 78 +8 +8 1009.3 952.1
00 14.08 СВ 2 50 км 10/0
[Ac trans Cc]
+15.5 +8.8 64 +15 +18 1008.3 952.3 +9.5 0.5
06 14.08 СВ 4 50 км 10/3 600 м
[Cb cap Cs]
+17.3 +11.3 68 +17 +22 1007.8 952.2
12 14.08 СЗ 4 50 км 10/1 1000 м
[Sc Ac trans Ci fib]
+17.2 +8.8 58 +17 +17 1009.5 953.7 +18.1
18 14.08 Ю 3 н/о 3/0
[Ac trans Ci fib]
+12.0 +7.5 74 +10 +10 1012.7 955.7
00 15.08 ЮЗ 2 50 км 8/1 1000 м
[Cu hum Ac lent Ci fib]
+15.9 +8.5 61 +16 +17 1014.1 957.8 +10.9
03 15.08 СЗ 1 50 км 8/5 600 м
[Cb cap Ac cast]
+18.5 +8.3 51 +20 +24 1013.8 958.0
06 15.08 С 2 20 км дым 6/6 600 м
[Cb cap]
+19.7 +8.2 47 +21 +26 комфорт 1013.1 957.6
09 15.08 СВ 2 20 км дым 6/6 600 м
[Cb cap]
+19.5 +8.3 48 +21 +23 комфорт 1012.5 957.0
12 15.08 штиль 0 50 км 10/0
[Ci]
+17.3 +11.0 66 +17 +17 1012.5 956.6 +20.6
15 15.08 Ю 3 н/о 8/0
[Ci fib]
+13.1 +6.7 65 +12 +12 1013.5 956.7
18 15.08 Ю 3 н/о дым 8/0
[Ci fib]
+12.3 +7.1 71 +11 +11 1013.6 956.6
21 15.08 ЮВ 3 н/о дым 8/0
[Ci fib]
+12.1 +7.6 74 +11 +11 1013.5 956.5
00 16.08 Ю 1 10 км дым 6/0
[Ci fib]
+16.0 +9.0 63 +17 +20 1012.9 956.7 +11.3
03 16.08 СЗ 2 20 км дым 10/3 1000 м
[Cu med, cong Ci fib]
+18.0 +11.5 66 +19 +24 1012.1 956.4
06 16.08 СВ 4 20 км дым 6/1 1000 м
[Cu hum Ac trans Ci fib]
+18.2 +10.0 59 +18 +23 1010.6 955.0
09 16.08 СВ 4 20 км дым 6/1 1000 м
[Cu hum Ac trans Ci fib]
+18.2 +10.0 59 +18 +20 1010.6 955.0
12 16.08 СВ 3 20 км дым 4/1 1000 м
[Sc Ci fib]
+16.3 +11.6 74 +16 +16 1010.5 954.6 +20.2
15 16.08 Ю 3 н/о дым 3/0
[Ci fib]
+13.3 +6.9 65 +12 +12 1011.0 954.4
18 16.08 ЮВ 3 н/о дым 3/0
[Ci fib]
+11.9 +6.7 70 +10 +10 1010.5 953.6
21 16.08 ЮВ 2 н/о дым 10/3 1000 м
[Sc Ci fib]
+11.5 +6.8 73 +10 +10 1010.3 953.3
00 17.08 СВ 3 10 км дым 10/0
[Cc]
+14.8 +10.0 73 +14 +16 1008.8 952.6 +10.6
03 17.08 СВ 7 10 км дым 10/1 1000 м
[Sc Ac trans Ci fib]
+17.0 +12.0 72 +16 +17 1007.5 951.9
06 17.08 СВ 6 10 км дым 9/5 1000 м
[Cu Sc Ac trans]
+16.9 +12.4 75 +16 +17 1006.4 950.8
09 17.08 СЗ 1 10 км дым 9/6 600 м
[Cb cap Ac trans]
+16.7 +12.2 75 +18 +19 1006.6 951.0
12 17.08 ЮЗ 3 10 км дым {ливн. осадки} 9/5 600 м
[Cb cap Ac trans]
+17.5 +9.8 61 +18 +18 1007.2 951.6 +17.7 0.0
15 17.08 Ю 2 н/о дым 9/5 600 м
[Cb cap Ac trans]
+16.6 +10.0 65 +17 +17 1007.7 951.9
18 17.08 Ю 2 н/о дым 10/3 600 м
[Cb cap Ac trans Ci fib]
+14.9 +9.0 68 +15 +15 1008.2 952.1
21 17.08 Ю 3 н/о дым 10/0
[Ac trans Ci fib]
+12.6 +8.6 77 +11 +11 1009.6 953.0
00 18.08 З 3 20 км дым 10/1 1000 м
[Cu med, cong Ac trans Ci fib]
+17.0 +10.0 63 +17 +18 1009.8 954.0 +12.1
06 18.08 З 1 10 км дым 10/4 1000 м
[Cu hum Ci]
+21.1 +7.6 42 +22 +29 комфорт 1009.2 954.1
12 18.08 В 2 10 км дым 10/5 1000 м
[Cu med, cong Ac trans Ci fib]
+18.7 +7.6 48 +20 +20 1009.7 954.2 +22.2

 

Местоположение метеостанции Худжир (Иркутская область, Россия): широта 53.20 долгота 107.30 высота над уровнем моря 487 м.

В архиве по умолчанию представлена погода в Худжире за последнюю неделю. Архивные данные за месяц целиком и за предыдущие месяцы, начиная с января 2011 года, Вы можете получить, выбрав интересующий диапазон дат из раскрывающегося списка и нажав кнопку "Ввод!".


*Определитесь, кто Вы:
робот инопланетянин человек

Внимание! Время в таблицах - всемирное. Для получения местного времени необходимо прибавить поправку, которая равна 8 ч.

Смотрите также архив погоды в соседних городах и на ближайших метеорологических станциях:

Погода в Узуре (Иркутская область, Россия) (30 км)
Погода в Горячинске (Бурятия, Россия) (65 км)
Погода в Сухой (Бурятия, Россия) (74 км)
Погода на Большом Ушканьем Острове (Бурятия, Россия) (107 км)
Погода в Солнечной (Иркутская область, Россия) (110 км)
Погода в Усть-Баргузине (Бурятия, Россия) (116 км)
Погода в Баяндае (Иркутская область, Россия) (121 км)
Погода в Качуге (Иркутская область, Россия) (126 км)
Погода в Кабанске (Бурятия, Россия) (136 км)
Погода в Тырке (Иркутская область, Россия) (144 км)

Пояснения к столбцам:

Ветер - указаны скорость ветра в м/с - средняя за 10 мин, порывы в срок и между сроками (в фигурных скобках) и направление, откуда дует ветер: С - северный, СВ - северо-восточный, В - восточный, ЮВ - юго-восточный, Ю - южный, ЮЗ - юго-западный, З - западный, СЗ - северо-западный.
Видимость - горизонтальная дальность видимости в метрах или километрах. При видимости от 1 до 10 км при отсутствии осадков обычно наблюдается дымка, при ухудшении видимости до 1 км и менее - туман. В сухую погоду видимость может ухудшаться дымом, пылью или мглою.
Явления - указаны атмосферные явления, наблюдавшиеся в срок или в последний час перед сроком; фигурными скобками обозначены явления, наблюдавшиеся между сроками (за 1-3 часа до срока); квадратными скобками обозначены град или гололедные отложения с указанием их диаметра в мм.
Облачность - указаны через наклонную черту общая и нижняя облачность в баллах и высота нижней границы облаков в метрах; квадратными скобками обозначены формы облаков: Ci - перистые, Cs - перисто-слоистые, Cc - перисто-кучевые, Ac - высококучевые, As - высокослоистые, Sc - слоисто-кучевые, Ns - слоисто-дождевые, Cu - кучевые, Cb - кучево-дождевые. Подробнее классификацию облаков см. в Атласе облаков (PDF).
T - Температура воздуха - температура, измеренная на высоте 2 м над землей.
Td - Температура точки росы - температура, при понижении до которой содержащийся в воздухе водяной пар достигнет насыщения.
f - Относительная влажность воздуха - влажноcть воздуха, измеренная на высоте 2 м над землей.
Te - Эффективная температура - температура, которую ощущает одетый по сезону человек в тени. Характеристика душности погоды. При расчете учитывается влияние влажности воздуха и скорости ветра на теплоощущения человека.
Tes - Эффективная температура на солнце - температура, которую ощущает человек, с поправкой на солнечный нагрев. Характеристика знойности погоды. Зависит от высоты солнца над горизонтом, облачности и скорости ветра. Ночью, в пасмурную погоду, а также при ветре 12 м/с и более поправка равна нулю.
P - Атмосферное давление - приведенное к уровню моря атмосферное давление.
Po - Атмосферное давление - измеренное на уровне метеостанции атмосферное давление.
Tmin - Минимальная температура - минимум температуры воздуха на высоте 2 м над землей.
Tmax - Максимальная температура - максимум температуры воздуха на высоте 2 м над землей.
R - Количество осадков - Количество выпавших осадков за период времени, мм. При наведении курсора мыши на число - период времени, за который выпало указанное количество осадков.
R24 - Количество осадков - Количество выпавших осадков за 24 часа, мм.
S - Снежный покров - Высота снежного покрова, см. При наведении курсора мыши на число - состояние снежного покрова и степень покрытия местности в баллах.